FLOCK 3P-51

Last updated on Feb. 14, 2018, 4:20 p.m. UTC

1 41952U 17008E   18044.88932343  .00001042  00000-0  46104-4 0  9990
2 41952  97.4661 110.4826 0009915  85.8690 274.3680 15.23891885 55334
UTC
Height (km)
Latitude
Longitude
Inclination
Orbital Period
UTC large
Height (km)
Speed (km/s)
/
Latitude / Longitude
Inclination (degrees)
Orbital Period (minutes)
Azimuth
Elevation
Range (km)
Doppler Factor
iOS Compass Heading
iOS Angle